Weather in Smerdomskiy

Russia / Vologda Oblast     59°10′34″N   35°03′43″E
temp.,
°C
wind,
m/s
gust,
m/s
humid.,
%
clouds,
%
prec.,
mm/h
press.,
hPa
HPBL,
m
25 july, sun
sun2500:00+9wnw226333 0.0 101721
03:00+8wnw11705 0.0 101812
06:00+11wsw23659 0.0 101893
09:00+17wsw234897 0.0 1018404
12:00+19w2339100 0.0 10191282
15:00+22w343492 0.0 10182432
18:00+20wnw3646100 0.0 1019524
21:00+15sw226821 0.0 101916
26 july, mon
mon2600:00+13wsw22718 0.0 102022
03:00+14sw2566100 0.0 1020116
06:00+15wsw2565100 0.0 1021147
09:00+20w255225 0.0 1021462
12:00+25wnw353638 0.0 10212351
15:00+25wnw2438100 0.0 10202085
18:00+23w115123 0.0 101915
21:00+19wsw116511 0.0 102011
27 july, tue
tue2700:00+16nnw22725 0.0 102111
03:00+14w11805 0.0 102110
06:00+16wnw118247 0.3 102131
09:00+23w125144 0.3 1020477
12:00+28wnw23355 0.0 10192182
15:00+28nnw2334100 0.0 10182444
18:00+28nne123233 0.0 10172439
21:00+21sse236084 0.0 101766
28 july, wed
wed2800:00+19s226542 0.0 101734
03:00+16s228092 0.0 101620
06:00+17ssw24764 0.0 1015107
09:00+24sw23520 0.0 1013503
12:00+28ssw33351 0.0 10112344
15:00+28sw323683 0.0 10092185
18:00+23sw386274 0.1 1009446
21:00+19sw25849 0.3 100898
29 july, thu
thu2900:00+16sw259423 1.4 1009116
03:00+15wsw279715 2.4 1008138
06:00+15wsw2594100 0.1 1008151
09:00+21sw2467100 0.1 1007479
12:00+25ssw3546100 0.0 10071334
15:00+27sw554287 0.0 10052159
18:00+23sw366514 0.6 1005731
21:00+21w286392 0.6 1005239